Showing default

HULIANWANG DIGUI-135, 67243

Orbit data source: Space-Track

HULIANWANG DIGUI-135, 67243 is a payload satellite owned by Zhongguo Xingwang (CN) in LEO that was launched on Thu, 25 Dec 2025 UTC via a CHANG ZHENG 8A launch vehicle from the Wenchang Satellite Launch Center (WSC). Payload-class satellites include a variety of spacecraft equipped with specific instruments for various scientific and technological missions. These include communications satellites like Starlink; space stations such as the ISS; scientific satellites like the Hubble; Earth observation satellites from companies like Planet Labs, Umbra, and HawkEye 360; GPS; miniature CubeSats for education and research; and military/defense satellites.

Loading next visibility...
Identifier
67243, 2025-311H
Orbit
LEO
Country
Flag of CNCN / PRC
Related business
Manufacturer
CAST
Mission
Operational Civil Communications
Bus & Motor
XINGWANG C, Unknown motor
Mass
~700 kg wet, ~700 kg dry
Launch date (UTC)
2025-12-25 (6 months ago)
Launch vehicle
CHANG ZHENG 8A
Launch site
Wenchang Satellite Launch Center (WSC)
Object type
Payload
Rocket body
Debris
Shape & HBR
Box + 2 Pan, 14.5 m
Radar Cross Section
5.935 m², Large (>1 m²)

Expand to show TLE details & history
Last TLE update: 22 hours ago

TLE from 22 hours ago
0 HULIANWANG DIGUI-135
1 67243U 25311H   26163.19988766 -.00000164  00000-0 -86981-4 0  9995
2 67243  50.0015 133.7796 0001070 309.3405  50.7372 13.29321510 22671
Epoch: 2026-06-12T04:47Z
TLE epoch observation values (Epoch: 2026-06-12T04:47:50.293Z)
Latitude
-0.00004°
Longitude
161.28726°
Altitude
1,149.32 km
Speed
7.28 km/s
True Right ascension
08h 55m 07s
True Declination
0° 00' 00"
Sunlit
Object was in daylight at epoch
Visualization orbit readout
Latitude
Unknown
Longitude
Unknown
Altitude
Unknown
Speed
Unknown
Apparent Right ascension
Unknown
Apparent Declination
Unknown
Sunlit
N/A
Visualization observer readout
Local Sidereal Time
12:43:30
Azimuth
Unknown
Elevation
Unknown
Doppler factor
Unknown
Orbital elements
Apogee altitude
1,150.834 km
Perigee altitude
1,149.223 km
Semi-major axis
7,528.166 km
Eccentricity
0.00011
Inclination
50.0015°
RAAN
133.7796°
Arg. of periapsis
309.3405°
True anomaly
50.74669°
Mean anomaly
50.7372°
Eccentric anomaly
50.74195°
Mean motion
3.32284 °/min
Orbital period
108.34 mins
BSTAR
-0.000086981
Loading maneuver chart data...
Computing Atmospheric mass density...
Loading historical data...
Loading historical data...
Loading historical data...
Loading historical data...
Loading historical data...
Loading historical data...
Loading historical data...

Documentation

Showing up to 5 results
|